Location: Hamburg
(53.5511°N, 9.9937°E)
Time: 18:46:24
(UTC+01:00)

ISS - Visible Passes

Search period start: 07 December 2019 00:00
Search period end: 17 December 2019 00:00
Orbit: 411 x 421 km, 51.6° (Epoch: 08 December)

Date Brightness Start Highest point End Pass type
(mag) Time Alt. Az. Time Alt. Az. Time Alt. Az.
07 Dec -2.5 17:37:44 10° W 17:40:54 38° SSW 17:44:03 10° SE visible
07 Dec -0.7 19:15:31 10° WSW 19:16:59 12° SW 19:17:00 12° SW visible
08 Dec -2.7 16:49:17 10° W 16:52:32 47° SSW 16:55:47 10° ESE visible
08 Dec -1.1 18:26:27 10° WSW 18:28:45 17° SW 18:31:04 10° S visible
09 Dec -1.4 17:37:44 10° W 17:40:29 23° SSW 17:43:13 10° SSE visible
10 Dec -1.8 16:49:08 10° W 16:52:09 31° SSW 16:55:09 10° SE visible
11 Dec -0.6 17:38:15 10° WSW 17:39:52 13° SW 17:41:30 10° S visible
12 Dec -0.7 16:49:13 10° W 16:51:36 18° SSW 16:53:58 10° SSE visible
